GW1622 Weather Reports


Display with metric or nautical units.
time (UTC)temp
F
wind
direction
speed
MPH
gust
MPH
rain 1hr
in
rain 24hr
in
rain mn
in
humidity
%
barometer
mb
20260903013521 69 0 0.0 2.0 0.00 0.00 0.00 81 1015.1
20260903013042 69 0 0.0 2.0 0.00 0.00 0.00 81 1014.9
20260903012518 69 0 0.0 4.0 0.00 0.00 0.00 81 1014.9
20260903012017 69 0 0.0 4.0 0.00 0.00 0.00 80 1014.8
20260903011550 70 0 0.0 2.0 0.00 0.00 0.00 79 1014.9
20260903011017 70 49 0.0 2.0 0.00 0.00 0.00 79 1014.9
20260903010520 70 0 0.0 4.0 0.00 0.00 0.00 78 1015.0
20260903010041 70 47 0.0 4.0 0.00 0.00 0.00 77 1015.0
20260903005522 70 254 0.0 4.0 0.00 0.00 0.00 77 1015.0
20260903005024 71 10 1.0 4.0 0.00 0.00 0.00 77 1014.9
20260903004541 71 0 1.0 4.0 0.00 0.00 0.00 76 1014.9
20260903004018 71 0 0.0 4.0 0.00 0.00 0.00 75 1014.9
20260903003518 71 56 1.0 4.0 0.00 0.00 0.00 76 1014.9
20260903003041 71 0 1.0 4.0 0.00 0.00 0.00 75 1014.9
20260903002517 71 0 0.0 4.0 0.00 0.00 0.00 74 1014.8
20260903002018 71 24 0.0 5.0 0.00 0.00 0.00 74 1014.8
20260903001539 71 37 0.0 5.0 0.00 0.00 0.00 73 1014.7
20260903001018 72 35 1.0 5.0 0.00 0.00 0.00 73 1014.9
20260903000518 72 67 0.0 5.0 0.00 0.00 0.00 73 1014.8
20260903000041 72 330 1.0 5.0 0.00 0.00 0.00 73 1014.8
20260902235520 72 349 2.0 5.0 0.00 0.00 0.00 73 1014.8
20260902235022 72 19 1.0 6.0 0.00 0.00 0.00 74 1014.9
20260902234542 72 228 2.0 7.0 0.00 0.00 0.00 73 1015.0
20260902234017 72 114 2.0 7.0 0.00 0.00 0.00 73 1015.0
20260902233522 73 0 1.0 7.0 0.00 0.00 0.00 73 1015.1
20260902233041 73 303 1.0 7.0 0.00 0.00 0.00 74 1015.1
20260902232524 73 352 1.0 6.0 0.00 0.00 0.00 72 1015.3
20260902232023 73 71 1.0 6.0 0.00 0.00 0.00 72 1015.2
20260902231551 74 360 1.0 6.0 0.00 0.00 0.00 72 1015.3
20260902231019 73 101 2.0 6.0 0.00 0.00 0.00 72 1015.4
20260902230518 74 15 1.0 8.0 0.00 0.00 0.00 73 1015.4
20260902230042 74 60 3.0 9.0 0.00 0.00 0.00 71 1015.5
20260902225520 74 65 1.0 9.0 0.00 0.00 0.00 71 1015.5
20260902225021 74 267 2.0 9.0 0.00 0.00 0.00 70 1015.5
20260902224552 75 74 1.0 8.0 0.00 0.00 0.00 69 1015.5
20260902224024 75 150 2.0 8.0 0.00 0.00 0.00 70 1015.5
20260902223519 75 226 2.0 8.0 0.00 0.00 0.00 70 1015.5
20260902223051 75 42 2.0 8.0 0.00 0.00 0.00 70 1015.5
20260902222553 76 68 1.0 6.0 0.00 0.00 0.00 70 1015.6
20260902222023 76 352 2.0 7.0 0.00 0.00 0.00 69 1015.6
20260902221554 75 62 2.0 8.0 0.00 0.00 0.00 69 1015.7
20260902221017 75 63 1.0 9.0 0.00 0.00 0.00 69 1015.7
20260902220519 74 171 2.0 9.0 0.00 0.00 0.00 70 1015.6
20260902220054 76 360 2.0 6.0 0.00 0.00 0.00 69 1015.7
20260902215518 75 100 2.0 8.0 0.00 0.00 0.00 69 1015.8
20260902215021 75 331 2.0 8.0 0.00 0.00 0.00 70 1015.7
20260902214535 76 309 1.0 9.0 0.00 0.00 0.00 69 1015.7
20260902214020 76 344 2.0 9.0 0.00 0.00 0.00 69 1015.9
20260902213518 75 352 1.0 10.0 0.00 0.00 0.00 70 1015.9
20260902213041 75 117 3.0 10.0 0.00 0.00 0.00 68 1015.9
20260902212519 75 67 2.0 7.0 0.00 0.00 0.00 69 1016.0
20260902212018 75 0 2.0 8.0 0.00 0.00 0.00 70 1015.8
20260902211540 76 157 3.0 8.0 0.00 0.00 0.00 67 1016.0
20260902211022 76 23 2.0 7.0 0.00 0.00 0.00 69 1016.1
20260902210519 76 314 1.0 8.0 0.00 0.00 0.00 68 1016.0
20260902210047 75 316 3.0 8.0 0.00 0.00 0.00 69 1015.9
20260902205522 76 22 3.0 7.0 0.00 0.00 0.00 68 1015.9
20260902205019 76 67 2.0 7.0 0.00 0.00 0.00 69 1016.0
20260902204548 76 28 2.0 11.0 0.00 0.00 0.00 69 1016.0
20260902204017 76 118 2.0 11.0 0.00 0.00 0.00 70 1016.1
20260902203520 76 101 2.0 7.0 0.00 0.00 0.00 70 1016.0
20260902203044 75 15 2.0 7.0 0.00 0.00 0.00 71 1016.2
20260902202520 75 38 3.0 10.0 0.00 0.00 0.00 70 1016.1
20260902202020 76 40 3.0 10.0 0.00 0.00 0.00 70 1016.3
20260902201548 76 150 2.0 7.0 0.00 0.00 0.00 70 1016.3
20260902201017 76 0 2.0 6.0 0.00 0.00 0.00 70 1016.3
20260902200521 75 113 1.0 7.0 0.00 0.00 0.00 71 1016.4
20260902200041 75 103 2.0 7.0 0.00 0.00 0.00 71 1016.4
20260902195521 76 19 1.0 10.0 0.00 0.00 0.00 71 1016.5
20260902195020 76 13 2.0 10.0 0.00 0.00 0.00 70 1016.6
20260902194540 75 59 2.0 10.0 0.00 0.00 0.00 71 1016.6
20260902194020 76 128 2.0 7.0 0.00 0.00 0.00 70 1016.7
20260902193521 75 146 2.0 9.0 0.00 0.00 0.00 72 1016.7
20260902193045 74 74 2.0 9.0 0.00 0.00 0.00 73 1016.7
20260902192518 74 0 2.0 9.0 0.00 0.00 0.00 73 1016.8
20260902192019 75 138 3.0 7.0 0.00 0.00 0.00 72 1016.8
20260902191542 74 21 2.0 7.0 0.00 0.00 0.00 75 1016.8
20260902191019 73 125 2.0 7.0 0.00 0.00 0.00 74 1016.7
20260902190520 74 133 1.0 6.0 0.00 0.00 0.00 72 1016.8
20260902190042 74 105 1.0 6.0 0.00 0.00 0.00 74 1016.7
20260902185517 74 123 2.0 6.0 0.00 0.00 0.00 71 1016.8
20260902185020 75 104 2.0 8.0 0.00 0.00 0.00 72 1017.0
20260902184545 74 98 1.0 8.0 0.00 0.00 0.00 74 1017.0
20260902184022 74 88 3.0 7.0 0.00 0.00 0.00 73 1017.0
20260902183523 75 150 1.0 7.0 0.00 0.00 0.00 73 1017.1
20260902183047 75 94 2.0 8.0 0.00 0.00 0.00 71 1017.1
20260902182522 74 88 2.0 8.0 0.00 0.00 0.00 74 1017.2
20260902182017 74 130 2.0 7.0 0.00 0.00 0.00 74 1017.2
20260902181544 73 73 1.0 7.0 0.00 0.00 0.00 74 1017.2
20260902181020 74 106 2.0 7.0 0.00 0.00 0.00 73 1017.3
20260902180522 74 82 2.0 7.0 0.00 0.00 0.00 72 1017.1
20260902180040 75 350 1.0 7.0 0.00 0.00 0.00 72 1017.2
20260902175518 74 183 2.0 7.0 0.00 0.00 0.00 73 1017.1
20260902175022 74 82 1.0 7.0 0.00 0.00 0.00 73 1017.1
20260902174543 74 17 2.0 7.0 0.00 0.00 0.00 73 1017.0
20260902174021 74 96 2.0 5.0 0.00 0.00 0.00 72 1017.0
20260902173519 74 0 1.0 4.0 0.00 0.00 0.00 74 1016.9
20260902173041 74 63 1.0 7.0 0.00 0.00 0.00 74 1016.9
20260902172523 74 77 2.0 7.0 0.00 0.00 0.00 74 1016.9
20260902172024 73 61 1.0 4.0 0.00 0.00 0.00 75 1017.0
20260902171551 73 90 1.0 4.0 0.00 0.00 0.00 75 1016.8
20260902171016 73 65 1.0 5.0 0.00 0.00 0.00 75 1016.8
20260902170523 72 115 1.0 7.0 0.00 0.00 0.00 77 1016.8
20260902170038 72 120 2.0 7.0 0.00 0.00 0.00 76 1016.9
20260902165520 73 158 1.0 5.0 0.00 0.00 0.00 76 1016.9
20260902165023 72 138 1.0 6.0 0.00 0.00 0.00 77 1016.9
20260902164543 72 118 1.0 6.0 0.00 0.00 0.00 77 1017.0
20260902164021 71 84 1.0 6.0 0.00 0.00 0.00 78 1016.9
20260902163517 71 89 2.0 6.0 0.00 0.00 0.00 79 1016.9
20260902163042 71 139 2.0 6.0 0.00 0.00 0.00 79 1016.9
20260902162519 71 155 1.0 5.0 0.00 0.00 0.00 80 1017.0
20260902162020 70 148 1.0 5.0 0.00 0.00 0.00 81 1017.0
20260902161540 70 71 2.0 5.0 0.00 0.00 0.00 80 1017.0
20260902161022 70 0 1.0 4.0 0.00 0.00 0.00 81 1017.1
20260902160520 70 153 0.0 4.0 0.00 0.00 0.00 81 1017.2
20260902160040 70 0 1.0 5.0 0.00 0.00 0.00 82 1017.0
20260902155518 70 98 0.0 5.0 0.00 0.00 0.00 84 1017.0
20260902155019 69 26 2.0 5.0 0.00 0.00 0.00 86 1016.9
20260902154541 68 27 1.0 3.0 0.00 0.00 0.00 87 1017.0
20260902154020 68 25 1.0 3.0 0.00 0.00 0.00 87 1017.0
20260902153521 67 19 1.0 3.0 0.00 0.00 0.00 89 1017.0
20260902153050 67 5 1.0 3.0 0.00 0.00 0.00 89 1017.0
20260902152522 66 22 1.0 3.0 0.00 0.00 0.00 90 1017.1
20260902152018 66 10 0.0 2.0 0.00 0.00 0.00 90 1016.9
20260902151535 65 10 1.0 4.0 0.00 0.00 0.00 91 1017.0
20260902151023 65 360 1.0 4.0 0.00 0.00 0.00 91 1017.0
20260902150517 65 13 1.0 3.0 0.00 0.00 0.00 92 1017.0
20260902150041 64 0 1.0 3.0 0.00 0.00 0.00 92 1017.0
20260902145520 64 5 1.0 3.0 0.00 0.00 0.00 92 1017.0
20260902145018 64 28 1.0 3.0 0.00 0.00 0.00 92 1017.0
20260902144541 64 0 0.0 1.0 0.00 0.00 0.00 92 1016.9
20260902144020 64 212 0.0 1.0 0.00 0.00 0.00 93 1016.7
20260902143520 63 0 0.0 1.0 0.00 0.00 0.00 93 1016.8
20260902143037 63 0 0.0 1.0 0.00 0.00 0.00 93 1016.8
20260902142518 63 0 0.0 2.0 0.00 0.00 0.00 93 1016.8
20260902142018 63 0 0.0 2.0 0.00 0.00 0.00 93 1016.8
20260902141538 62 0 0.0 1.0 0.00 0.00 0.00 93 1016.7
20260902141020 63 0 0.0 3.0 0.00 0.00 0.00 93 1016.8
20260902140518 63 0 0.0 3.0 0.00 0.00 0.00 93 1016.8
20260902140038 63 0 0.0 3.0 0.00 0.00 0.00 93 1016.6
20260902135521 63 0 0.0 4.0 0.00 0.00 0.00 93 1016.5
20260902135016 63 0 0.0 4.0 0.00 0.00 0.00 93 1016.5
20260902134549 62 0 0.0 2.0 0.00 0.00 0.00 93 1016.4
20260902134021 62 0 0.0 1.0 0.00 0.00 0.00 93 1016.3
20260902133518 62 0 0.0 1.0 0.00 0.00 0.00 93 1016.3
20260902133041 62 0 0.0 0.0 0.00 0.00 0.00 93 1016.3
20260902132523 62 0 0.0 0.0 0.00 0.00 0.00 93 1016.2
20260902132017 61 0 0.0 0.0 0.00 0.00 0.00 93 1016.3
20260902131544 62 0 0.0 0.0 0.00 0.00 0.00 93 1016.3
20260902131017 62 0 0.0 0.0 0.00 0.00 0.00 93 1016.2
20260902130518 62 0 0.0 0.0 0.00 0.00 0.00 93 1016.1
20260902130043 62 0 0.0 0.0 0.00 0.00 0.00 93 1016.0
20260902125526 62 0 0.0 1.0 0.00 0.00 0.00 93 1015.9
20260902125021 63 0 0.0 1.0 0.00 0.00 0.00 93 1015.9
20260902124537 62 0 0.0 0.0 0.00 0.00 0.00 93 1016.0
20260902124020 62 0 0.0 0.0 0.00 0.00 0.00 93 1016.0
20260902123520 62 0 0.0 0.0 0.00 0.00 0.00 93 1016.0
20260902123050 62 0 0.0 0.0 0.00 0.00 0.00 93 1016.1
20260902122520 62 0 0.0 1.0 0.00 0.00 0.00 93 1016.0
20260902122018 62 0 0.0 1.0 0.00 0.00 0.00 93 1016.0
20260902121538 62 0 0.0 0.0 0.00 0.00 0.00 93 1016.0
20260902121025 62 0 0.0 0.0 0.00 0.00 0.00 93 1015.9
20260902120521 62 0 0.0 0.0 0.00 0.00 0.00 93 1015.9
20260902120041 62 0 0.0 0.0 0.00 0.00 0.00 93 1015.9
20260902115518 62 0 0.0 0.0 0.00 0.00 0.00 93 1016.1
20260902115020 62 0 0.0 0.0 0.00 0.00 0.00 93 1016.0
20260902114542 62 0 0.0 1.0 0.00 0.00 0.00 92 1016.0
20260902114019 62 0 0.0 1.0 0.00 0.00 0.00 92 1016.0
20260902113519 62 0 0.0 1.0 0.00 0.00 0.00 92 1016.0
20260902113038 63 0 0.0 1.0 0.00 0.00 0.00 92 1016.1
20260902112517 63 0 0.0 0.0 0.00 0.00 0.00 92 1016.0
20260902112022 63 0 0.0 1.0 0.00 0.00 0.00 92 1016.1
20260902111537 63 0 0.0 1.0 0.00 0.00 0.00 92 1016.1
20260902111020 63 0 0.0 1.0 0.00 0.00 0.00 92 1016.0
20260902110523 63 0 0.0 0.0 0.00 0.00 0.00 92 1016.0
20260902110044 63 0 0.0 0.0 0.00 0.00 0.00 92 1016.0
20260902105518 63 0 0.0 0.0 0.00 0.00 0.00 92 1016.0
20260902105020 63 0 0.0 1.0 0.00 0.00 0.00 92 1016.1
20260902104538 63 0 0.0 1.0 0.00 0.00 0.00 92 1016.1
20260902104018 63 0 0.0 0.0 0.00 0.00 0.00 92 1016.1
20260902103517 63 0 0.0 0.0 0.00 0.00 0.00 92 1016.1
20260902103038 63 0 0.0 0.0 0.00 0.00 0.00 92 1016.2
20260902102521 63 0 0.0 0.0 0.00 0.00 0.00 92 1016.3
20260902102022 63 0 0.0 1.0 0.00 0.00 0.00 92 1016.2
20260902101537 63 0 0.0 1.0 0.00 0.00 0.00 92 1016.2
20260902101017 63 0 0.0 0.0 0.00 0.00 0.00 91 1016.2
20260902100518 64 0 0.0 1.0 0.00 0.00 0.00 92 1016.2
20260902100038 63 0 0.0 1.0 0.00 0.00 0.00 91 1016.3
20260902095520 63 0 0.0 0.0 0.00 0.00 0.00 91 1016.4
20260902095019 63 0 0.0 0.0 0.00 0.00 0.00 91 1016.4
20260902094537 64 0 0.0 0.0 0.00 0.00 0.00 91 1016.4
20260902094018 64 0 0.0 0.0 0.00 0.00 0.00 91 1016.5
20260902093518 64 0 0.0 0.0 0.00 0.00 0.00 91 1016.4
20260902093038 64 0 0.0 0.0 0.00 0.00 0.00 91 1016.4
20260902092518 64 0 0.0 0.0 0.00 0.00 0.00 91 1016.5
20260902092019 64 0 0.0 0.0 0.00 0.00 0.00 91 1016.5
20260902091540 64 0 0.0 0.0 0.00 0.00 0.00 91 1016.5
20260902091020 64 0 0.0 0.0 0.00 0.00 0.00 91 1016.6
20260902090519 64 0 0.0 0.0 0.00 0.00 0.00 91 1016.7
20260902090038 64 0 0.0 0.0 0.00 0.00 0.00 91 1016.7
20260902085519 64 0 0.0 1.0 0.00 0.00 0.00 91 1016.7
20260902085018 64 0 0.0 4.0 0.00 0.00 0.00 91 1016.8
20260902084539 64 0 0.0 4.0 0.00 0.00 0.00 90 1016.7
20260902084018 65 352 1.0 4.0 0.00 0.00 0.00 90 1016.8
20260902083521 65 0 0.0 1.0 0.00 0.00 0.00 91 1016.7
20260902083037 64 0 0.0 0.0 0.00 0.00 0.00 91 1016.7
20260902082517 64 0 0.0 0.0 0.00 0.00 0.00 90 1016.7
20260902082017 64 0 0.0 0.0 0.00 0.00 0.00 90 1016.6
20260902081537 65 0 0.0 0.0 0.00 0.00 0.00 90 1016.8
20260902081018 65 0 0.0 1.0 0.00 0.00 0.00 90 1016.6
20260902080522 65 0 0.0 1.0 0.00 0.00 0.00 90 1016.6
20260902080037 64 0 0.0 1.0 0.00 0.00 0.00 90 1016.7
20260902075518 64 0 0.0 0.0 0.00 0.00 0.00 90 1016.6
20260902075018 64 0 0.0 0.0 0.00 0.00 0.00 89 1016.5
20260902074542 65 0 0.0 0.0 0.00 0.00 0.00 89 1016.6
20260902074019 65 0 0.0 1.0 0.00 0.00 0.00 89 1016.6
20260902073518 65 0 0.0 1.0 0.00 0.00 0.00 89 1016.6
20260902073036 65 0 0.0 1.0 0.00 0.00 0.00 89 1016.6
20260902072518 65 0 0.0 0.0 0.00 0.00 0.00 88 1016.6
20260902072017 66 0 0.0 1.0 0.00 0.00 0.00 89 1016.5
20260902071539 66 0 0.0 1.0 0.00 0.00 0.00 89 1016.5
20260902071019 66 0 0.0 1.0 0.00 0.00 0.00 89 1016.5
20260902070516 66 0 0.0 1.0 0.00 0.00 0.00 88 1016.4
20260902070035 66 0 0.0 1.0 0.00 0.00 0.00 88 1016.4
20260902065520 66 0 0.0 1.0 0.00 0.00 0.00 88 1016.4
20260902065026 66 0 0.0 1.0 0.00 0.00 0.00 88 1016.3
20260902064544 66 0 0.0 1.0 0.00 0.00 0.00 88 1016.3
20260902064020 66 0 0.0 1.0 0.00 0.00 0.00 88 1016.3
20260902063520 66 0 0.0 0.0 0.00 0.00 0.00 88 1016.3
20260902063043 66 0 0.0 0.0 0.00 0.00 0.00 88 1016.2
20260902062521 66 0 0.0 1.0 0.00 0.00 0.00 88 1016.1
20260902062019 67 0 0.0 1.0 0.00 0.00 0.00 88 1016.1
20260902061557 66 0 0.0 0.0 0.00 0.00 0.00 87 1016.2
20260902061021 67 0 0.0 0.0 0.00 0.00 0.00 87 1016.2
20260902060517 67 0 0.0 0.0 0.00 0.00 0.00 87 1016.0
20260902060055 67 0 0.0 0.0 0.00 0.00 0.00 87 1016.0
20260902055524 67 0 0.0 0.0 0.00 0.00 0.00 87 1016.2
20260902055020 67 0 0.0 0.0 0.00 0.00 0.00 87 1016.2
20260902054605 67 0 0.0 1.0 0.00 0.00 0.00 87 1016.1
20260902054024 67 0 0.0 1.0 0.00 0.00 0.00 87 1016.2
20260902053519 67 0 0.0 1.0 0.00 0.00 0.00 87 1016.2
20260902053057 67 0 0.0 1.0 0.00 0.00 0.00 87 1016.2
20260902052521 67 0 0.0 0.0 0.00 0.00 0.00 87 1016.2
20260902052020 67 0 0.0 0.0 0.00 0.00 0.00 87 1016.2
20260902051540 67 0 0.0 0.0 0.00 0.00 0.00 87 1016.2
20260902051022 67 0 0.0 0.0 0.00 0.00 0.00 87 1016.4
20260902050518 68 0 0.0 0.0 0.00 0.00 0.00 87 1016.3
20260902050041 67 0 0.0 1.0 0.00 0.00 0.00 87 1016.3
20260902045519 68 0 0.0 1.0 0.00 0.00 0.00 87 1016.2
20260902045018 68 0 0.0 1.0 0.00 0.00 0.00 87 1016.3
20260902044543 67 0 0.0 0.0 0.00 0.00 0.00 87 1016.2
20260902044019 67 0 0.0 0.0 0.00 0.00 0.00 87 1016.2
20260902043521 67 0 0.0 0.0 0.00 0.00 0.00 87 1016.1
20260902043044 67 0 0.0 0.0 0.00 0.00 0.00 88 1016.1
20260902042521 67 0 0.0 0.0 0.00 0.00 0.00 88 1015.9
20260902042018 67 0 0.0 0.0 0.00 0.00 0.00 87 1015.8
20260902041541 67 0 0.0 0.0 0.00 0.00 0.00 88 1015.7
20260902041020 67 0 0.0 0.0 0.00 0.00 0.00 88 1015.7
20260902040520 67 0 0.0 1.0 0.00 0.00 0.00 88 1015.7
20260902040048 67 0 0.0 1.0 0.00 0.00 0.00 88 1015.6
20260902035517 67 0 0.0 1.0 0.00 0.00 0.00 88 1015.5
20260902035019 67 0 0.0 2.0 0.00 0.00 0.00 88 1015.3
20260902034551 67 0 0.0 2.0 0.00 0.00 0.00 88 1015.1
20260902034020 67 0 0.0 0.0 0.00 0.00 0.00 88 1015.1
20260902033518 67 0 0.0 0.0 0.00 0.00 0.00 87 1015.1
20260902033035 68 0 0.0 0.0 0.00 0.00 0.00 87 1014.9
20260902032520 68 0 0.0 0.0 0.00 0.00 0.00 87 1014.8
20260902032025 68 0 0.0 0.0 0.00 0.00 0.00 87 1014.6
20260902031543 68 0 0.0 0.0 0.00 0.00 0.00 87 1014.6
20260902031020 68 0 0.0 0.0 0.00 0.00 0.00 87 1014.5
20260902030520 68 0 0.0 0.0 0.00 0.00 0.00 87 1014.4
20260902030041 69 0 0.0 0.0 0.00 0.00 0.00 87 1014.4
20260902025516 69 0 0.0 2.0 0.00 0.00 0.00 86 1014.5
20260902025019 69 0 0.0 3.0 0.00 0.00 0.00 86 1014.6
20260902024539 69 0 0.0 3.0 0.00 0.00 0.00 86 1014.5
20260902024018 70 0 0.0 3.0 0.00 0.00 0.00 86 1014.4
20260902023520 70 13 0.0 3.0 0.00 0.00 0.00 86 1014.4
20260902023041 70 5 0.0 2.0 0.00 0.00 0.00 85 1014.4
20260902022518 70 0 0.0 2.0 0.00 0.00 0.00 85 1014.4
20260902022018 70 0 0.0 2.0 0.00 0.00 0.00 85 1014.4
20260902021536 70 0 0.0 2.0 0.00 0.00 0.00 84 1014.4
20260902021018 70 0 0.0 1.0 0.00 0.00 0.00 84 1014.3
20260902020517 69 0 0.0 3.0 0.00 0.00 0.00 83 1014.4
20260902020038 69 0 0.0 3.0 0.00 0.00 0.00 83 1014.4
20260902015522 70 0 0.0 3.0 0.00 0.00 0.00 83 1014.5
20260902015020 70 0 0.0 3.0 0.00 0.00 0.00 82 1014.6
20260902014537 70 24 0.0 3.0 0.00 0.00 0.00 82 1014.6
20260902014020 70 0 0.0 2.0 0.00 0.00 0.00 82 1014.6